BAW7W EGLL-KIAD

Flight info

Callsign BAW7W
Flight time N/A
Altitude 38000
Route CPT L9 BUCGO DCT FELCA DCT OFSOX DCT BANBA DCT TOBOR/M082F390 DCT 53N020W 53N030W 5230N04000W 50N050W DCT ELSIR/N0465F400 N402C ALLEX DCT KAYCC DCT KYLOH DCT BAF HYPER9
Aircraft B772/H-SDE2E3FGHIJ5LORVWXY/LB1D1

Departure

Time N/A
Airport London Heathrow Airport (EGLL)

Arrival

Time 2026-05-06 07:32
Airport Washington Dulles International Airport (KIAD)
Time Latitude Longitude Altitude Speed Heading
2026-05-06 03:33 52.04887 -42.18020 38107 ft 461 kts 251°
2026-05-06 03:34 52.02716 -42.27940 38110 ft 470 kts 251°
2026-05-06 03:34 52.00503 -42.38009 38110 ft 477 kts 251°
2026-05-06 03:35 51.98252 -42.48200 38113 ft 482 kts 251°
2026-05-06 03:35 51.95968 -42.58485 38104 ft 486 kts 251°
2026-05-06 03:36 51.93660 -42.68826 38101 ft 489 kts 251°
2026-05-06 03:36 51.91336 -42.79190 38099 ft 489 kts 251°
2026-05-06 03:37 51.89012 -42.89501 38097 ft 487 kts 251°
2026-05-06 03:37 51.86703 -42.99693 38093 ft 478 kts 251°
2026-05-06 03:38 51.84436 -43.09660 38106 ft 479 kts 251°
2026-05-06 03:38 51.82123 -43.19777 38103 ft 479 kts 251°
2026-05-06 03:39 51.79811 -43.29844 38094 ft 480 kts 251°
2026-05-06 03:39 51.77470 -43.39989 38098 ft 480 kts 251°
2026-05-06 03:40 51.75130 -43.50079 38095 ft 480 kts 251°
2026-05-06 03:40 51.72781 -43.60163 38095 ft 480 kts 250°
2026-05-06 03:41 51.70421 -43.70243 38092 ft 480 kts 250°
2026-05-06 03:41 51.68058 -43.80289 38080 ft 479 kts 250°
2026-05-06 03:42 51.65691 -43.90303 38083 ft 477 kts 250°
2026-05-06 03:42 51.63322 -44.00281 38086 ft 476 kts 250°
2026-05-06 03:43 51.61352 -44.08548 38086 ft 475 kts 250°
2026-05-06 03:43 51.58598 -44.20046 38086 ft 474 kts 250°
2026-05-06 03:44 51.56220 -44.29927 38081 ft 474 kts 250°
2026-05-06 03:44 51.53833 -44.39802 38083 ft 474 kts 250°
2026-05-06 03:45 51.51438 -44.49663 38082 ft 474 kts 250°
2026-05-06 03:45 51.49036 -44.59513 38094 ft 474 kts 250°
2026-05-06 03:46 51.46635 -44.69312 38072 ft 475 kts 250°
2026-05-06 03:46 51.44205 -44.79182 38086 ft 476 kts 250°
2026-05-06 03:47 51.41766 -44.89052 38079 ft 477 kts 250°
2026-05-06 03:47 51.39313 -44.98929 38080 ft 477 kts 250°
2026-05-06 03:48 51.36850 -45.08801 38074 ft 478 kts 250°
2026-05-06 03:48 51.34379 -45.18663 38064 ft 478 kts 250°
2026-05-06 03:49 51.31897 -45.28525 38075 ft 477 kts 250°
2026-05-06 03:49 51.29413 -45.38349 38076 ft 477 kts 250°
2026-05-06 03:50 51.26919 -45.48175 38073 ft 477 kts 250°
2026-05-06 03:50 51.24419 -45.57979 38054 ft 476 kts 250°
2026-05-06 03:51 51.21919 -45.67737 38078 ft 475 kts 250°
2026-05-06 03:51 51.19416 -45.77469 38070 ft 474 kts 250°
2026-05-06 03:52 51.16910 -45.87169 38079 ft 473 kts 250°
2026-05-06 03:52 51.14400 -45.96845 38090 ft 472 kts 250°
2026-05-06 03:53 51.11900 -46.06441 38069 ft 471 kts 250°
2026-05-06 03:53 51.09365 -46.16128 38075 ft 471 kts 250°
2026-05-06 03:54 51.06859 -46.25666 38074 ft 470 kts 250°
2026-05-06 03:54 51.04312 -46.35318 38081 ft 470 kts 250°
2026-05-06 03:55 51.01793 -46.44827 38082 ft 470 kts 250°
2026-05-06 03:55 50.99248 -46.54388 38074 ft 469 kts 250°
2026-05-06 03:56 50.96703 -46.63915 38082 ft 469 kts 250°
2026-05-06 03:56 50.94148 -46.73441 38086 ft 468 kts 250°
2026-05-06 03:57 50.91597 -46.82908 38081 ft 468 kts 250°
2026-05-06 03:57 50.89029 -46.92402 38067 ft 468 kts 250°
2026-05-06 03:58 50.86477 -47.01798 38083 ft 467 kts 250°
2026-05-06 03:58 50.83902 -47.11240 38085 ft 466 kts 250°
2026-05-06 03:59 50.81328 -47.20641 38087 ft 466 kts 250°
2026-05-06 03:59 50.78748 -47.30026 38088 ft 465 kts 250°
2026-05-06 04:00 50.76163 -47.39394 38093 ft 465 kts 250°
2026-05-06 04:00 50.73571 -47.48746 38089 ft 465 kts 250°
2026-05-06 04:01 50.70969 -47.58096 38093 ft 465 kts 250°
2026-05-06 04:01 50.68361 -47.67435 38072 ft 465 kts 250°
2026-05-06 04:02 50.65745 -47.76762 38091 ft 465 kts 249°
2026-05-06 04:02 50.63121 -47.86079 38097 ft 465 kts 249°
2026-05-06 04:03 50.60501 -47.95350 38094 ft 465 kts 249°
2026-05-06 04:03 50.57865 -48.04638 38077 ft 466 kts 249°
2026-05-06 04:04 50.55216 -48.13937 38088 ft 466 kts 249°
2026-05-06 04:04 50.52562 -48.23216 38072 ft 466 kts 249°
2026-05-06 04:05 50.50342 -48.30949 38089 ft 467 kts 249°
2026-05-06 04:05 50.47208 -48.41827 38092 ft 468 kts 249°
2026-05-06 04:06 50.44518 -48.51123 38088 ft 469 kts 249°
2026-05-06 04:06 50.42267 -48.58872 38087 ft 469 kts 249°
2026-05-06 04:07 50.39554 -48.68181 38082 ft 469 kts 249°
2026-05-06 04:07 50.36835 -48.77476 38086 ft 469 kts 249°
2026-05-06 04:08 50.34104 -48.86773 38085 ft 469 kts 249°
2026-05-06 04:08 50.31370 -48.96047 38084 ft 469 kts 249°
2026-05-06 04:09 50.28627 -49.05313 38073 ft 469 kts 249°
2026-05-06 04:09 50.25899 -49.14493 38078 ft 468 kts 249°
2026-05-06 04:10 50.23153 -49.23703 38085 ft 468 kts 249°
2026-05-06 04:10 50.20391 -49.32929 38087 ft 467 kts 249°
2026-05-06 04:11 50.17648 -49.42057 38088 ft 467 kts 249°
2026-05-06 04:11 50.14884 -49.51218 38079 ft 466 kts 249°
2026-05-06 04:12 50.12121 -49.60345 38093 ft 465 kts 249°
2026-05-06 04:12 50.09356 -49.69444 38083 ft 465 kts 249°
2026-05-06 04:13 50.06586 -49.78528 38086 ft 464 kts 249°
2026-05-06 04:13 50.03810 -49.87601 38091 ft 464 kts 249°
2026-05-06 04:14 50.01031 -49.96651 38084 ft 463 kts 248°
2026-05-06 04:14 49.98548 -50.05836 38100 ft 459 kts 253°
2026-05-06 04:15 49.96333 -50.15163 38081 ft 459 kts 253°
2026-05-06 04:15 49.94117 -50.24434 38086 ft 460 kts 253°
2026-05-06 04:16 49.91875 -50.33724 38077 ft 460 kts 253°
2026-05-06 04:16 49.89629 -50.42963 38084 ft 460 kts 253°
2026-05-06 04:17 49.87360 -50.52256 38086 ft 461 kts 253°
2026-05-06 04:17 49.85079 -50.61558 38088 ft 462 kts 253°
2026-05-06 04:18 49.82789 -50.70859 38066 ft 462 kts 253°
2026-05-06 04:18 49.80487 -50.80168 38087 ft 462 kts 253°
2026-05-06 04:19 49.78181 -50.89457 38096 ft 462 kts 252°
2026-05-06 04:19 49.75870 -50.98729 38084 ft 462 kts 252°
2026-05-06 04:20 49.73548 -51.08005 38088 ft 462 kts 252°
2026-05-06 04:20 49.71223 -51.17252 38073 ft 461 kts 252°
2026-05-06 04:21 49.68895 -51.26475 38084 ft 460 kts 252°
2026-05-06 04:21 49.66580 -51.35611 38078 ft 459 kts 252°
2026-05-06 04:22 49.64245 -51.44788 38075 ft 459 kts 252°
2026-05-06 04:23 49.60742 -51.58485 38078 ft 458 kts 252°
2026-05-06 04:23 49.58404 -51.67581 38075 ft 456 kts 252°
2026-05-06 04:24 49.56072 -51.76620 38068 ft 455 kts 252°
2026-05-06 04:24 49.53734 -51.85650 38071 ft 454 kts 252°
2026-05-06 04:25 49.51386 -51.94683 38071 ft 452 kts 252°
2026-05-06 04:25 49.49060 -52.03667 38071 ft 451 kts 253°
2026-05-06 04:26 49.46831 -52.12662 38063 ft 449 kts 253°
2026-05-06 04:26 49.44625 -52.21635 38065 ft 449 kts 253°
2026-05-06 04:27 49.42414 -52.30555 38064 ft 449 kts 253°
2026-05-06 04:27 49.40180 -52.39502 38063 ft 449 kts 253°
2026-05-06 04:28 49.37934 -52.48444 38042 ft 448 kts 253°
2026-05-06 04:28 49.35687 -52.57353 38053 ft 447 kts 253°
2026-05-06 04:29 49.33435 -52.66246 38056 ft 447 kts 253°
2026-05-06 04:29 49.31177 -52.75131 38057 ft 446 kts 253°
2026-05-06 04:30 49.28917 -52.83990 38060 ft 446 kts 252°
2026-05-06 04:30 49.26657 -52.92817 38033 ft 445 kts 252°
2026-05-06 04:31 49.24403 -53.01579 38052 ft 445 kts 252°
2026-05-06 04:31 49.22133 -53.10374 38055 ft 445 kts 252°
2026-05-06 04:32 49.19852 -53.19176 38052 ft 445 kts 252°
2026-05-06 04:32 49.17565 -53.27970 38053 ft 445 kts 252°
2026-05-06 04:33 49.15268 -53.36768 38043 ft 445 kts 252°
2026-05-06 04:33 49.12964 -53.45558 38051 ft 446 kts 252°
2026-05-06 04:34 49.10646 -53.54368 38040 ft 447 kts 252°
2026-05-06 04:34 49.08322 -53.63167 38041 ft 448 kts 252°
2026-05-06 04:35 49.06001 -53.71919 38045 ft 448 kts 251°
2026-05-06 04:35 49.03660 -53.80713 38045 ft 447 kts 251°
2026-05-06 04:36 49.01319 -53.89476 38047 ft 445 kts 251°
2026-05-06 04:36 48.98976 -53.98211 38032 ft 444 kts 251°
2026-05-06 04:37 48.96636 -54.06904 38039 ft 443 kts 251°
2026-05-06 04:37 48.94292 -54.15580 38042 ft 443 kts 251°
2026-05-06 04:38 48.91949 -54.24223 38055 ft 442 kts 251°
2026-05-06 04:38 48.89599 -54.32856 38046 ft 441 kts 251°
2026-05-06 04:39 48.87261 -54.41417 38050 ft 441 kts 251°
2026-05-06 04:39 48.84898 -54.50033 38050 ft 441 kts 251°
2026-05-06 04:40 48.82530 -54.58638 38054 ft 441 kts 251°
2026-05-06 04:40 48.80156 -54.67233 38042 ft 440 kts 250°
2026-05-06 04:41 48.77787 -54.75780 38047 ft 439 kts 250°
2026-05-06 04:41 48.75417 -54.84300 38049 ft 438 kts 250°
2026-05-06 04:42 48.73039 -54.92816 38056 ft 438 kts 250°
2026-05-06 04:42 48.70659 -55.01313 38050 ft 438 kts 250°
2026-05-06 04:43 48.68275 -55.09792 38051 ft 437 kts 250°
2026-05-06 04:43 48.65901 -55.18204 38058 ft 438 kts 250°
2026-05-06 04:44 48.63502 -55.26677 38058 ft 438 kts 250°
2026-05-06 04:44 48.61486 -55.33772 38048 ft 438 kts 250°
2026-05-06 04:45 48.58680 -55.43612 38049 ft 439 kts 250°
2026-05-06 04:45 48.56259 -55.52074 38058 ft 439 kts 249°
2026-05-06 04:46 48.53831 -55.60524 38047 ft 438 kts 249°
2026-05-06 04:46 48.51403 -55.68952 38044 ft 437 kts 249°
2026-05-06 04:47 48.48985 -55.77310 38034 ft 437 kts 249°
2026-05-06 04:47 48.46535 -55.85754 38034 ft 437 kts 249°
2026-05-06 04:48 48.44112 -55.94076 38027 ft 436 kts 249°
2026-05-06 04:48 48.41669 -56.02434 38034 ft 436 kts 249°
2026-05-06 04:49 48.39220 -56.10785 38035 ft 436 kts 249°
2026-05-06 04:49 48.36766 -56.19125 38038 ft 436 kts 249°
2026-05-06 04:50 48.34300 -56.27477 38032 ft 436 kts 249°
2026-05-06 04:50 48.31833 -56.35803 38028 ft 436 kts 248°
2026-05-06 04:51 48.29358 -56.44131 38026 ft 436 kts 248°
2026-05-06 04:51 48.27299 -56.51035 38022 ft 436 kts 248°
2026-05-06 04:52 48.24815 -56.59337 38030 ft 436 kts 248°
2026-05-06 04:52 48.22327 -56.67628 38028 ft 436 kts 248°
2026-05-06 04:53 48.19834 -56.75907 38038 ft 435 kts 248°
2026-05-06 04:53 48.17332 -56.84187 38036 ft 436 kts 248°
2026-05-06 04:54 48.14825 -56.92458 38053 ft 436 kts 248°
2026-05-06 04:54 48.12311 -57.00721 38050 ft 436 kts 248°
2026-05-06 04:55 48.09791 -57.08979 38065 ft 436 kts 248°
2026-05-06 04:55 48.07262 -57.17236 38083 ft 437 kts 247°
2026-05-06 04:56 48.04724 -57.25499 38091 ft 437 kts 247°
2026-05-06 04:56 48.02176 -57.33764 38081 ft 438 kts 247°
2026-05-06 04:57 47.99624 -57.42016 38073 ft 438 kts 247°
2026-05-06 04:57 47.97082 -57.50210 38084 ft 437 kts 247°
2026-05-06 04:58 47.94523 -57.58428 38092 ft 436 kts 246°
2026-05-06 04:58 47.91960 -57.66634 38095 ft 436 kts 246°
2026-05-06 04:59 47.89394 -57.74822 38086 ft 436 kts 246°
2026-05-06 04:59 47.86821 -57.83007 38092 ft 436 kts 246°
2026-05-06 05:00 47.84250 -57.91158 38075 ft 435 kts 246°
2026-05-06 05:00 47.81671 -57.99309 38094 ft 435 kts 246°
2026-05-06 05:01 47.79084 -58.07460 38103 ft 435 kts 246°
2026-05-06 05:01 47.76502 -58.15567 38087 ft 434 kts 246°
2026-05-06 05:02 47.73952 -58.23550 38085 ft 433 kts 246°
2026-05-06 05:02 47.71366 -58.31616 38072 ft 432 kts 246°
2026-05-06 05:03 47.68770 -58.39691 38070 ft 433 kts 246°
2026-05-06 05:03 47.66173 -58.47743 38076 ft 433 kts 246°
2026-05-06 05:04 47.63582 -58.55753 38073 ft 433 kts 246°
2026-05-06 05:04 47.60979 -58.63773 38068 ft 434 kts 246°
2026-05-06 05:05 47.58354 -58.71836 38049 ft 434 kts 246°
2026-05-06 05:05 47.55720 -58.79898 38051 ft 435 kts 246°
2026-05-06 05:06 47.53109 -58.87869 38053 ft 436 kts 245°
2026-05-06 05:06 47.50455 -58.95943 38041 ft 437 kts 245°
2026-05-06 05:07 47.47794 -59.04015 38022 ft 437 kts 245°
2026-05-06 05:07 47.45125 -59.12082 38021 ft 437 kts 245°
2026-05-06 05:08 47.42454 -59.20135 38016 ft 437 kts 245°
2026-05-06 05:08 47.39775 -59.28182 38004 ft 436 kts 245°
2026-05-06 05:09 47.37092 -59.36217 38007 ft 436 kts 245°
2026-05-06 05:09 47.34401 -59.44255 37997 ft 436 kts 245°
2026-05-06 05:10 47.31712 -59.52259 37990 ft 436 kts 245°
2026-05-06 05:10 47.29014 -59.60265 37990 ft 435 kts 245°
2026-05-06 05:11 47.26333 -59.68197 37991 ft 435 kts 245°
2026-05-06 05:11 47.23639 -59.76143 37977 ft 434 kts 244°
2026-05-06 05:12 47.20941 -59.84076 37959 ft 433 kts 244°
2026-05-06 05:12 47.18239 -59.91995 37974 ft 432 kts 244°
2026-05-06 05:13 47.15537 -59.99894 37962 ft 433 kts 244°
2026-05-06 05:13 47.12823 -60.07800 37963 ft 433 kts 244°
2026-05-06 05:14 47.10107 -60.15692 37969 ft 433 kts 244°
2026-05-06 05:14 47.07381 -60.23587 37967 ft 434 kts 244°
2026-05-06 05:15 47.04649 -60.31476 37954 ft 434 kts 244°
2026-05-06 05:15 47.01922 -60.39325 37958 ft 434 kts 244°
2026-05-06 05:16 46.99172 -60.47218 37968 ft 434 kts 244°
2026-05-06 05:16 46.96430 -60.55065 37961 ft 432 kts 244°
2026-05-06 05:17 46.93686 -60.62895 37952 ft 432 kts 243°
2026-05-06 05:17 46.90934 -60.70725 37958 ft 433 kts 243°
2026-05-06 05:18 46.88187 -60.78515 37952 ft 434 kts 243°
2026-05-06 05:18 46.85418 -60.86348 37954 ft 434 kts 243°
2026-05-06 05:19 46.82634 -60.94197 37922 ft 435 kts 243°
2026-05-06 05:19 46.79845 -61.02038 37944 ft 436 kts 243°
2026-05-06 05:20 46.77052 -61.09866 37950 ft 438 kts 243°
2026-05-06 05:20 46.74227 -61.17761 37940 ft 440 kts 243°
2026-05-06 05:21 46.71390 -61.25667 37938 ft 440 kts 243°
2026-05-06 05:21 46.68546 -61.33567 37929 ft 439 kts 243°
2026-05-06 05:22 46.65702 -61.41444 37928 ft 438 kts 243°
2026-05-06 05:22 46.62885 -61.49224 37936 ft 436 kts 243°
2026-05-06 05:23 46.60051 -61.57028 37932 ft 435 kts 243°
2026-05-06 05:23 46.55805 -61.68679 38326 ft 432 kts 243°
2026-05-06 05:24 46.54394 -61.72539 38532 ft 433 kts 243°
2026-05-06 05:24 46.52995 -61.76360 38712 ft 434 kts 243°
2026-05-06 05:24 46.51577 -61.80231 38871 ft 434 kts 243°
2026-05-06 05:24 46.50155 -61.84103 39024 ft 435 kts 243°
2026-05-06 05:25 46.48732 -61.87973 39180 ft 435 kts 242°
2026-05-06 05:25 46.47306 -61.91846 39353 ft 435 kts 242°
2026-05-06 05:25 46.45857 -61.95777 39515 ft 436 kts 242°
2026-05-06 05:25 46.44445 -61.99601 39699 ft 436 kts 242°
2026-05-06 05:26 46.43016 -62.03467 39837 ft 437 kts 242°
2026-05-06 05:26 46.41576 -62.07356 39897 ft 439 kts 242°
2026-05-06 05:26 46.38673 -62.15178 39948 ft 441 kts 242°
2026-05-06 05:27 46.35759 -62.23009 39957 ft 440 kts 242°
2026-05-06 05:27 46.32845 -62.30815 39957 ft 440 kts 242°
2026-05-06 05:28 46.29931 -62.38599 39945 ft 440 kts 242°
2026-05-06 05:28 46.27015 -62.46366 39947 ft 440 kts 242°
2026-05-06 05:29 46.24093 -62.54130 39951 ft 439 kts 242°
2026-05-06 05:29 46.21164 -62.61888 39948 ft 440 kts 242°
2026-05-06 05:30 46.18246 -62.69594 39951 ft 440 kts 242°
2026-05-06 05:30 46.15304 -62.77341 39956 ft 440 kts 242°
2026-05-06 05:31 46.12353 -62.85093 39948 ft 440 kts 242°
2026-05-06 05:31 46.09401 -62.92821 39948 ft 440 kts 242°
2026-05-06 05:32 46.06443 -63.00547 39948 ft 440 kts 242°
2026-05-06 05:32 46.03481 -63.08259 39938 ft 440 kts 242°
2026-05-06 05:33 46.00517 -63.15954 39951 ft 440 kts 242°
2026-05-06 05:33 45.97545 -63.23650 39960 ft 440 kts 242°
2026-05-06 05:34 45.94565 -63.31346 39958 ft 440 kts 242°
2026-05-06 05:34 45.91576 -63.39041 39960 ft 441 kts 242°
2026-05-06 05:35 45.89094 -63.45415 39972 ft 441 kts 242°
2026-05-06 05:35 45.85600 -63.54362 39967 ft 441 kts 241°
2026-05-06 05:36 45.83084 -63.60789 39953 ft 441 kts 241°
2026-05-06 05:36 45.80072 -63.68461 39951 ft 441 kts 241°
2026-05-06 05:37 45.77076 -63.76072 39959 ft 441 kts 241°
2026-05-06 05:37 45.74057 -63.83721 39959 ft 441 kts 241°
2026-05-06 05:38 45.71027 -63.91375 39953 ft 441 kts 241°
2026-05-06 05:38 45.67997 -63.99009 39955 ft 441 kts 241°
2026-05-06 05:39 45.64980 -64.06587 39954 ft 441 kts 241°
2026-05-06 05:39 45.61943 -64.14197 39953 ft 441 kts 241°
2026-05-06 05:40 45.58908 -64.21780 39952 ft 441 kts 241°
2026-05-06 05:40 45.55857 -64.29382 39955 ft 441 kts 241°
2026-05-06 05:41 45.52806 -64.36964 39951 ft 441 kts 241°
2026-05-06 05:41 45.49744 -64.44553 39958 ft 440 kts 241°
2026-05-06 05:42 45.46682 -64.52121 39963 ft 440 kts 241°
2026-05-06 05:42 45.43617 -64.59674 39967 ft 440 kts 241°
2026-05-06 05:43 45.40565 -64.67177 39969 ft 441 kts 241°
2026-05-06 05:43 45.37486 -64.74726 39962 ft 441 kts 241°
2026-05-06 05:44 45.34401 -64.82269 39966 ft 441 kts 241°
2026-05-06 05:44 45.31307 -64.89812 39975 ft 441 kts 240°
2026-05-06 05:45 45.28208 -64.97349 39969 ft 442 kts 240°
2026-05-06 05:45 45.25101 -65.04884 39970 ft 442 kts 240°
2026-05-06 05:46 45.21991 -65.12406 39966 ft 442 kts 240°
2026-05-06 05:46 45.18869 -65.19937 39970 ft 442 kts 240°
2026-05-06 05:47 45.15766 -65.27403 39968 ft 443 kts 240°
2026-05-06 05:47 45.12635 -65.34914 39971 ft 443 kts 240°
2026-05-06 05:48 45.09497 -65.42423 39973 ft 443 kts 240°
2026-05-06 05:48 45.06361 -65.49908 39968 ft 443 kts 240°
2026-05-06 05:49 45.03216 -65.57394 39983 ft 443 kts 240°
2026-05-06 05:49 45.00066 -65.64873 39975 ft 443 kts 240°
2026-05-06 05:50 44.96913 -65.72339 39975 ft 442 kts 240°
2026-05-06 05:50 44.93752 -65.79803 39964 ft 442 kts 240°
2026-05-06 05:51 44.90592 -65.87245 39972 ft 441 kts 240°
2026-05-06 05:51 44.87430 -65.94673 39973 ft 441 kts 240°
2026-05-06 05:52 44.84287 -66.02037 39969 ft 441 kts 240°
2026-05-06 05:52 44.81120 -66.09439 39941 ft 441 kts 240°
2026-05-06 05:53 44.77943 -66.16844 39963 ft 441 kts 240°
2026-05-06 05:53 44.74769 -66.24223 39956 ft 441 kts 240°
2026-05-06 05:54 44.71585 -66.31605 39941 ft 442 kts 240°
2026-05-06 05:54 44.68392 -66.38990 39950 ft 442 kts 240°
2026-05-06 05:55 44.65196 -66.46362 39949 ft 442 kts 240°
2026-05-06 05:55 44.61996 -66.53726 39939 ft 442 kts 240°
2026-05-06 05:56 44.58808 -66.61044 39952 ft 442 kts 240°
2026-05-06 05:56 44.55591 -66.68407 39951 ft 442 kts 239°
2026-05-06 05:57 44.52377 -66.75746 39948 ft 442 kts 240°
2026-05-06 05:57 44.49156 -66.83083 39952 ft 442 kts 239°
2026-05-06 05:58 44.45931 -66.90416 39957 ft 442 kts 239°
2026-05-06 05:58 44.42802 -66.97781 39954 ft 442 kts 244°
2026-05-06 05:59 44.40450 -67.05721 39952 ft 442 kts 253°
2026-05-06 05:59 44.38734 -67.13985 39959 ft 442 kts 253°
2026-05-06 06:00 44.37031 -67.22253 39959 ft 443 kts 253°
2026-05-06 06:00 44.35308 -67.30521 39955 ft 443 kts 253°
2026-05-06 06:01 44.33568 -67.38788 39951 ft 443 kts 253°
2026-05-06 06:01 44.31816 -67.47057 39949 ft 444 kts 253°
2026-05-06 06:02 44.30060 -67.55308 39944 ft 446 kts 253°
2026-05-06 06:02 44.28286 -67.63619 39952 ft 447 kts 253°
2026-05-06 06:03 44.26597 -67.71499 39939 ft 448 kts 253°
2026-05-06 06:03 44.24805 -67.79825 39940 ft 449 kts 253°
2026-05-06 06:04 44.23002 -67.88173 39941 ft 449 kts 253°
2026-05-06 06:04 44.21189 -67.96534 39931 ft 451 kts 253°
2026-05-06 06:05 44.18928 -68.04683 39925 ft 453 kts 243°
2026-05-06 06:05 44.15830 -68.12331 39931 ft 454 kts 241°
2026-05-06 06:06 44.12710 -68.20004 39932 ft 455 kts 241°
2026-05-06 06:06 44.09602 -68.27694 39933 ft 456 kts 241°
2026-05-06 06:07 44.06516 -68.35337 39912 ft 456 kts 242°
2026-05-06 06:07 44.03403 -68.43030 39920 ft 456 kts 242°
2026-05-06 06:08 44.00286 -68.50713 39937 ft 457 kts 242°
2026-05-06 06:08 43.97164 -68.58386 39925 ft 457 kts 242°
2026-05-06 06:09 43.94027 -68.66074 39925 ft 458 kts 242°
2026-05-06 06:09 43.90882 -68.73761 39915 ft 458 kts 242°
2026-05-06 06:10 43.87733 -68.81437 39913 ft 457 kts 242°
2026-05-06 06:10 43.84590 -68.89077 39914 ft 458 kts 242°
2026-05-06 06:11 43.81435 -68.96727 39913 ft 458 kts 242°
2026-05-06 06:11 43.78274 -69.04368 39918 ft 457 kts 242°
2026-05-06 06:12 43.75112 -69.11992 39911 ft 457 kts 242°
2026-05-06 06:12 43.71968 -69.19557 39910 ft 456 kts 242°
2026-05-06 06:13 43.68806 -69.27142 39906 ft 455 kts 242°
2026-05-06 06:13 43.65637 -69.34723 39904 ft 454 kts 242°
2026-05-06 06:14 43.62473 -69.42273 39912 ft 454 kts 242°
2026-05-06 06:14 43.59307 -69.49811 39904 ft 453 kts 242°
2026-05-06 06:15 43.56143 -69.57320 39904 ft 453 kts 242°
2026-05-06 06:15 43.52994 -69.64775 39899 ft 452 kts 243°
2026-05-06 06:16 43.49817 -69.72276 39891 ft 449 kts 243°
2026-05-06 06:16 43.46694 -69.79632 39897 ft 447 kts 243°
2026-05-06 06:17 43.43559 -69.86999 39901 ft 445 kts 243°
2026-05-06 06:17 43.40427 -69.94339 39887 ft 444 kts 243°
2026-05-06 06:18 43.37294 -70.01664 39883 ft 444 kts 243°
2026-05-06 06:18 43.34159 -70.08976 39889 ft 444 kts 243°
2026-05-06 06:19 43.31017 -70.16284 39895 ft 444 kts 243°
2026-05-06 06:19 43.27870 -70.23584 39886 ft 444 kts 243°
2026-05-06 06:20 43.25251 -70.29645 39877 ft 443 kts 243°
2026-05-06 06:20 43.22106 -70.36909 39880 ft 443 kts 243°
2026-05-06 06:21 43.18951 -70.44177 39878 ft 443 kts 243°
2026-05-06 06:21 43.15800 -70.51419 39871 ft 443 kts 243°
2026-05-06 06:22 43.12642 -70.58658 39871 ft 442 kts 243°
2026-05-06 06:22 43.09482 -70.65884 39861 ft 442 kts 243°
2026-05-06 06:23 43.06333 -70.73067 39860 ft 441 kts 243°
2026-05-06 06:23 43.03173 -70.80256 39862 ft 441 kts 242°
2026-05-06 06:24 43.00006 -70.87445 39861 ft 441 kts 242°
2026-05-06 06:24 42.96841 -70.94611 39856 ft 441 kts 243°
2026-05-06 06:25 42.93671 -71.01773 39870 ft 441 kts 243°
2026-05-06 06:26 42.88900 -71.12517 39893 ft 441 kts 242°
2026-05-06 06:26 42.85708 -71.19683 39896 ft 442 kts 242°
2026-05-06 06:27 42.82514 -71.26836 39873 ft 442 kts 243°
2026-05-06 06:27 42.79336 -71.33937 39874 ft 442 kts 243°
2026-05-06 06:28 42.76129 -71.41085 39874 ft 443 kts 242°
2026-05-06 06:28 42.72907 -71.48249 39870 ft 443 kts 242°
2026-05-06 06:29 42.69676 -71.55415 39859 ft 443 kts 243°
2026-05-06 06:29 42.66452 -71.62547 39871 ft 443 kts 243°
2026-05-06 06:30 42.63223 -71.69676 39881 ft 443 kts 243°
2026-05-06 06:30 42.59992 -71.76790 39882 ft 442 kts 243°
2026-05-06 06:31 42.56759 -71.83892 39865 ft 442 kts 243°
2026-05-06 06:31 42.53542 -71.90943 39873 ft 442 kts 243°
2026-05-06 06:32 42.50310 -71.98009 39885 ft 441 kts 243°
2026-05-06 06:32 42.47065 -72.05088 39889 ft 441 kts 243°
2026-05-06 06:33 42.43824 -72.12141 39896 ft 441 kts 243°
2026-05-06 06:33 42.40575 -72.19192 39896 ft 441 kts 243°
2026-05-06 06:34 42.37324 -72.26235 39896 ft 442 kts 243°
2026-05-06 06:34 42.34056 -72.33298 39874 ft 442 kts 243°
2026-05-06 06:35 42.30781 -72.40358 39871 ft 443 kts 243°
2026-05-06 06:35 42.27523 -72.47366 39864 ft 443 kts 243°
2026-05-06 06:36 42.24235 -72.54421 39853 ft 443 kts 243°
2026-05-06 06:36 42.20946 -72.61464 39870 ft 444 kts 243°
2026-05-06 06:37 42.17650 -72.68506 39883 ft 444 kts 243°
2026-05-06 06:37 42.14345 -72.75548 39878 ft 444 kts 243°
2026-05-06 06:38 42.11038 -72.82590 39864 ft 444 kts 243°
2026-05-06 06:38 42.07729 -72.89629 39867 ft 444 kts 243°
2026-05-06 06:39 42.04423 -72.96657 39880 ft 444 kts 243°
2026-05-06 06:39 42.01134 -73.03649 39879 ft 445 kts 243°
2026-05-06 06:40 41.97838 -73.10648 39879 ft 445 kts 243°
2026-05-06 06:40 41.94527 -73.17673 39871 ft 444 kts 244°
2026-05-06 06:41 41.91219 -73.24683 39881 ft 445 kts 243°
2026-05-06 06:41 41.87926 -73.31657 39891 ft 445 kts 243°
2026-05-06 06:42 41.84606 -73.38683 39867 ft 446 kts 243°
2026-05-06 06:42 41.81289 -73.45691 39864 ft 445 kts 243°
2026-05-06 06:43 41.77986 -73.52662 39849 ft 445 kts 243°
2026-05-06 06:43 41.74666 -73.59663 39850 ft 445 kts 243°
2026-05-06 06:44 41.71341 -73.66667 39863 ft 445 kts 243°
2026-05-06 06:44 41.68024 -73.73647 39857 ft 445 kts 243°
2026-05-06 06:45 41.64705 -73.80622 39850 ft 444 kts 243°
2026-05-06 06:45 41.61390 -73.87581 39854 ft 443 kts 243°
2026-05-06 06:46 41.58076 -73.94527 39854 ft 443 kts 243°
2026-05-06 06:46 41.54781 -74.01426 39860 ft 442 kts 243°
2026-05-06 06:47 41.51468 -74.08351 39850 ft 441 kts 243°
2026-05-06 06:47 41.48161 -74.15254 39844 ft 441 kts 243°
2026-05-06 06:48 41.44860 -74.22138 39852 ft 440 kts 243°
2026-05-06 06:48 41.41558 -74.29016 39866 ft 440 kts 243°
2026-05-06 06:49 41.38257 -74.35887 39895 ft 440 kts 243°
2026-05-06 06:49 41.34950 -74.42761 39890 ft 440 kts 243°
2026-05-06 06:50 41.31676 -74.49556 39885 ft 438 kts 244°
2026-05-06 06:50 41.27830 -74.55856 39906 ft 440 kts 236°
2026-05-06 06:51 41.23836 -74.62071 39907 ft 445 kts 237°
2026-05-06 06:51 41.19787 -74.68356 39907 ft 449 kts 236°
2026-05-06 06:52 41.15716 -74.74608 39884 ft 451 kts 236°
2026-05-06 06:52 41.11592 -74.80902 39886 ft 451 kts 236°
2026-05-06 06:53 41.07467 -74.87182 39884 ft 451 kts 236°
2026-05-06 06:53 41.03344 -74.93448 39873 ft 450 kts 236°
2026-05-06 06:54 40.99237 -74.99678 39837 ft 448 kts 236°
2026-05-06 06:54 40.95170 -75.05835 39877 ft 447 kts 236°
2026-05-06 06:55 40.91077 -75.12021 39883 ft 446 kts 236°
2026-05-06 06:55 40.87000 -75.18169 39877 ft 444 kts 236°
2026-05-06 06:56 40.82921 -75.24310 39871 ft 444 kts 236°
2026-05-06 06:56 40.78843 -75.30438 39861 ft 445 kts 236°
2026-05-06 06:57 40.74730 -75.36606 39872 ft 448 kts 236°
2026-05-06 06:57 40.72686 -75.39661 39758 ft 440 kts 236°
2026-05-06 06:57 40.70671 -75.42662 39339 ft 435 kts 237°
2026-05-06 06:57 40.68666 -75.45654 38639 ft 435 kts 237°
2026-05-06 06:58 40.66657 -75.48657 37675 ft 438 kts 237°
2026-05-06 06:58 40.64636 -75.51684 36626 ft 443 kts 236°
2026-05-06 06:58 40.62582 -75.54753 35508 ft 449 kts 236°
2026-05-06 06:58 40.60534 -75.57809 34473 ft 454 kts 235°
2026-05-06 06:59 40.58409 -75.60969 33363 ft 458 kts 234°
2026-05-06 06:59 40.56314 -75.64078 32300 ft 459 kts 233°
2026-05-06 06:59 40.54226 -75.67151 31758 ft 431 kts 233°
2026-05-06 06:59 40.52313 -75.69937 31481 ft 392 kts 233°
2026-05-06 07:00 40.50554 -75.72505 31030 ft 364 kts 233°
2026-05-06 07:00 40.48911 -75.74924 30307 ft 347 kts 233°
2026-05-06 07:00 40.47861 -75.76478 29693 ft 339 kts 232°
2026-05-06 07:00 40.45792 -75.79548 28134 ft 333 kts 232°
2026-05-06 07:01 40.44266 -75.81813 26979 ft 330 kts 232°
2026-05-06 07:01 40.42756 -75.84051 25919 ft 325 kts 232°
2026-05-06 07:01 40.41263 -75.86257 24944 ft 320 kts 232°
2026-05-06 07:01 40.39791 -75.88429 24010 ft 316 kts 231°
2026-05-06 07:02 40.38338 -75.90569 23020 ft 312 kts 231°
2026-05-06 07:02 40.36898 -75.92692 22080 ft 316 kts 231°
2026-05-06 07:02 40.35433 -75.94849 21676 ft 315 kts 231°
2026-05-06 07:02 40.33991 -75.96967 21476 ft 308 kts 231°
2026-05-06 07:03 40.32591 -75.99020 21258 ft 303 kts 231°
2026-05-06 07:03 40.31189 -76.01077 20941 ft 301 kts 231°
2026-05-06 07:03 40.29793 -76.03125 20588 ft 301 kts 230°
2026-05-06 07:03 40.28397 -76.05171 20236 ft 300 kts 230°
2026-05-06 07:04 40.27011 -76.07201 19924 ft 298 kts 230°
2026-05-06 07:04 40.25632 -76.09221 19642 ft 297 kts 230°
2026-05-06 07:04 40.24724 -76.10548 19431 ft 295 kts 230°
2026-05-06 07:04 40.22899 -76.13217 19064 ft 293 kts 230°
2026-05-06 07:05 40.21535 -76.15210 18745 ft 293 kts 230°
2026-05-06 07:05 40.20635 -76.16525 18522 ft 293 kts 230°
2026-05-06 07:05 40.19275 -76.18510 18213 ft 292 kts 230°
2026-05-06 07:05 40.17927 -76.20479 17884 ft 291 kts 230°
2026-05-06 07:06 40.16582 -76.22442 17594 ft 289 kts 229°
2026-05-06 07:06 40.15246 -76.24387 17282 ft 287 kts 229°
2026-05-06 07:06 40.13913 -76.26326 16950 ft 286 kts 229°
2026-05-06 07:06 40.12588 -76.28248 16655 ft 284 kts 229°
2026-05-06 07:07 40.11367 -76.30246 16295 ft 282 kts 236°
2026-05-06 07:07 40.10345 -76.32436 15965 ft 281 kts 239°
2026-05-06 07:07 40.09386 -76.34620 15645 ft 280 kts 239°
2026-05-06 07:07 40.08411 -76.36820 15324 ft 280 kts 238°
2026-05-06 07:08 40.07411 -76.39034 15021 ft 278 kts 238°
2026-05-06 07:08 40.06434 -76.41168 14742 ft 277 kts 238°
2026-05-06 07:08 40.05441 -76.43318 14467 ft 276 kts 237°
2026-05-06 07:08 40.04453 -76.45456 14179 ft 274 kts 237°
2026-05-06 07:09 40.03469 -76.47582 13907 ft 273 kts 237°
2026-05-06 07:09 40.02488 -76.49699 13637 ft 272 kts 237°
2026-05-06 07:09 40.01507 -76.51814 13236 ft 274 kts 238°
2026-05-06 07:09 40.00520 -76.53948 12853 ft 276 kts 238°
2026-05-06 07:10 39.99526 -76.56097 12549 ft 275 kts 238°
2026-05-06 07:10 39.98539 -76.58224 12253 ft 274 kts 238°
2026-05-06 07:10 39.97553 -76.60345 11985 ft 272 kts 238°
2026-05-06 07:10 39.96570 -76.62455 11700 ft 271 kts 238°
2026-05-06 07:11 39.95594 -76.64551 11419 ft 270 kts 237°
2026-05-06 07:11 39.94618 -76.66642 11131 ft 269 kts 237°
2026-05-06 07:11 39.93647 -76.68725 10850 ft 269 kts 237°
2026-05-06 07:11 39.92676 -76.70804 10568 ft 268 kts 237°
2026-05-06 07:12 39.91709 -76.72878 10304 ft 267 kts 237°
2026-05-06 07:12 39.90750 -76.74933 10073 ft 265 kts 237°
2026-05-06 07:12 39.90122 -76.76281 10035 ft 261 kts 237°
2026-05-06 07:12 39.88856 -76.78991 9994 ft 264 kts 237°
2026-05-06 07:13 39.87909 -76.81019 9955 ft 266 kts 237°
2026-05-06 07:13 39.86952 -76.83070 9950 ft 264 kts 237°
2026-05-06 07:13 39.85999 -76.85112 9949 ft 263 kts 237°
2026-05-06 07:13 39.85048 -76.87143 9973 ft 262 kts 237°
2026-05-06 07:14 39.84099 -76.89165 9979 ft 261 kts 237°
2026-05-06 07:14 39.83154 -76.91176 9979 ft 261 kts 237°
2026-05-06 07:14 39.82207 -76.93197 9978 ft 261 kts 238°
2026-05-06 07:14 39.81261 -76.95213 9978 ft 261 kts 237°
2026-05-06 07:15 39.80314 -76.97229 9980 ft 261 kts 237°
2026-05-06 07:15 39.79365 -76.99244 9983 ft 262 kts 237°
2026-05-06 07:15 39.78413 -77.01266 9982 ft 262 kts 237°
2026-05-06 07:15 39.77462 -77.03285 9985 ft 262 kts 237°
2026-05-06 07:16 39.76507 -77.05307 9981 ft 263 kts 237°
2026-05-06 07:16 39.75550 -77.07336 9980 ft 263 kts 237°
2026-05-06 07:16 39.74595 -77.09360 9975 ft 263 kts 237°
2026-05-06 07:16 39.73638 -77.11391 9978 ft 263 kts 237°
2026-05-06 07:17 39.72677 -77.13430 9982 ft 264 kts 237°
2026-05-06 07:17 39.71729 -77.15438 9983 ft 264 kts 237°
2026-05-06 07:17 39.70769 -77.17467 9985 ft 264 kts 237°
2026-05-06 07:17 39.69804 -77.19505 9988 ft 265 kts 237°
2026-05-06 07:18 39.68841 -77.21534 9984 ft 264 kts 237°
2026-05-06 07:18 39.67762 -77.23439 9932 ft 261 kts 226°
2026-05-06 07:18 39.66462 -77.25031 9801 ft 252 kts 222°
2026-05-06 07:18 39.65169 -77.26504 9675 ft 246 kts 222°
2026-05-06 07:19 39.63890 -77.27976 9550 ft 245 kts 223°
2026-05-06 07:19 39.62619 -77.29464 9446 ft 246 kts 223°
2026-05-06 07:19 39.61349 -77.30972 9342 ft 247 kts 223°
2026-05-06 07:19 39.60091 -77.32472 9198 ft 247 kts 223°
2026-05-06 07:20 39.58840 -77.33968 9117 ft 247 kts 223°
2026-05-06 07:20 39.57578 -77.35476 9044 ft 246 kts 223°
2026-05-06 07:20 39.56237 -77.36840 8986 ft 247 kts 214°
2026-05-06 07:20 39.55236 -77.37619 8981 ft 250 kts 212°
2026-05-06 07:21 39.53221 -77.39115 8985 ft 253 kts 212°
2026-05-06 07:21 39.51698 -77.40267 8991 ft 253 kts 213°
2026-05-06 07:21 39.50180 -77.41432 8987 ft 254 kts 213°
2026-05-06 07:21 39.48667 -77.42603 8986 ft 253 kts 213°
2026-05-06 07:22 39.47158 -77.43773 8982 ft 252 kts 213°
2026-05-06 07:22 39.45644 -77.44886 8983 ft 248 kts 205°
2026-05-06 07:22 39.43930 -77.45301 8788 ft 259 kts 185°
2026-05-06 07:22 39.42119 -77.45274 8505 ft 264 kts 184°
2026-05-06 07:23 39.40287 -77.45289 8211 ft 262 kts 185°
2026-05-06 07:23 39.38497 -77.45313 7924 ft 259 kts 185°
2026-05-06 07:23 39.36704 -77.45340 7643 ft 256 kts 185°
2026-05-06 07:23 39.34912 -77.45365 7342 ft 253 kts 185°
2026-05-06 07:24 39.33149 -77.45389 7063 ft 252 kts 185°
2026-05-06 07:24 39.31421 -77.45416 6755 ft 252 kts 185°
2026-05-06 07:24 39.29661 -77.45443 6420 ft 253 kts 185°
2026-05-06 07:24 39.27902 -77.45469 6070 ft 253 kts 185°
2026-05-06 07:25 39.26138 -77.45497 5766 ft 253 kts 185°
2026-05-06 07:25 39.24389 -77.45523 5459 ft 251 kts 186°
2026-05-06 07:25 39.22646 -77.45549 5167 ft 249 kts 186°
2026-05-06 07:25 39.20976 -77.45571 4838 ft 229 kts 187°
2026-05-06 07:26 39.19455 -77.45589 4569 ft 209 kts 188°
2026-05-06 07:26 39.18053 -77.45610 4294 ft 196 kts 188°
2026-05-06 07:26 39.16687 -77.45636 4066 ft 196 kts 188°
2026-05-06 07:26 39.15328 -77.45658 3809 ft 195 kts 188°
2026-05-06 07:27 39.13974 -77.45679 3559 ft 194 kts 188°
2026-05-06 07:27 39.12640 -77.45698 3324 ft 190 kts 188°
2026-05-06 07:27 39.11365 -77.45715 3094 ft 174 kts 188°
2026-05-06 07:27 39.10214 -77.45730 2836 ft 159 kts 189°
2026-05-06 07:28 39.09163 -77.45744 2633 ft 143 kts 190°
2026-05-06 07:28 39.08237 -77.45756 2462 ft 122 kts 191°
2026-05-06 07:28 39.06809 -77.45779 2199 ft 95 kts 192°
2026-05-06 07:29 39.06146 -77.45793 2065 ft 94 kts 191°
2026-05-06 07:29 39.05498 -77.45805 1957 ft 95 kts 189°
2026-05-06 07:29 39.04828 -77.45815 1830 ft 97 kts 188°
2026-05-06 07:29 39.04140 -77.45828 1697 ft 101 kts 187°
2026-05-06 07:30 39.03429 -77.45837 1557 ft 103 kts 186°
2026-05-06 07:30 39.02721 -77.45848 1413 ft 102 kts 184°
2026-05-06 07:30 39.02025 -77.45857 1282 ft 104 kts 186°
2026-05-06 07:30 39.01284 -77.45827 1235 ft 108 kts 184°
2026-05-06 07:31 39.00517 -77.45862 928 ft 115 kts 184°
2026-05-06 07:31 38.99729 -77.45875 825 ft 108 kts 181°
2026-05-06 07:31 38.99218 -77.45880 779 ft 113 kts 181°
2026-05-06 07:31 38.98176 -77.45886 503 ft 109 kts 180°
2026-05-06 07:32 38.97388 -77.45920 392 ft 116 kts 183°
2026-05-06 07:32 38.96618 -77.45936 295 ft 104 kts 183°
2026-05-06 07:32 38.96030 -77.45950 296 ft 65 kts 180°
2026-05-06 07:32 38.95728 -77.45955 297 ft 28 kts 181°
2026-05-06 07:33 38.95450 -77.45964 298 ft 46 kts 178°
2026-05-06 07:33 38.95142 -77.45954 296 ft 42 kts 175°
2026-05-06 07:33 38.94906 -77.45842 297 ft 23 kts 149°
2026-05-06 07:33 38.94805 -77.45770 297 ft 11 kts 149°
2026-05-06 07:34 38.94762 -77.45690 300 ft 0 kts 101°
2026-05-06 07:34 38.94760 -77.45677 301 ft 6 kts 101°
2026-05-06 07:35 38.94741 -77.45573 298 ft 15 kts 85°
2026-05-06 07:35 38.94734 -77.45452 297 ft 12 kts 92°
2026-05-06 07:35 38.94733 -77.45404 297 ft 0 kts 90°
2026-05-06 07:36 38.94733 -77.45364 300 ft 10 kts 90°
2026-05-06 07:36 38.94732 -77.45297 300 ft 0 kts 91°
2026-05-06 07:36 38.94732 -77.45295 297 ft 2 kts 91°
2026-05-06 07:36 38.94731 -77.45196 297 ft 19 kts 91°
2026-05-06 07:37 38.94730 -77.45119 297 ft 11 kts 91°
2026-05-06 07:37 38.94728 -77.45018 298 ft 10 kts 93°
2026-05-06 07:37 38.94765 -77.44956 301 ft 10 kts 21°
2026-05-06 07:37 38.94795 -77.44950 299 ft 3 kts
2026-05-06 07:38 38.94810 -77.44947 300 ft 1 kts
2026-05-06 07:38 38.94815 -77.44947 297 ft 1 kts
2026-05-06 07:38 38.94817 -77.44946 297 ft 0 kts
2026-05-06 07:38 38.94818 -77.44946 297 ft 0 kts